| time (UTC) | temp F | wind direction | speed knots | gust knots | rain 1hr in | rain 24hr in | rain mn in | humidity % | barometer mb |
| 20260505040504 | 73 | 0.0 | 0.0 | 0.00 | 0.00 | 0.00 | 79 | 1009.8 | |
| 20260505035503 | 73 | 0.0 | 0.0 | 0.00 | 0.00 | 0.00 | 79 | 1009.5 | |
| 20260505034501 | 73 | 0.0 | 0.0 | 0.00 | 0.00 | 0.00 | 78 | 1009.8 | |
| 20260505033500 | 73 | 0.0 | 0.0 | 0.00 | 0.00 | 0.00 | 77 | 1009.8 | |
| 20260505032459 | 73 | 0.0 | 0.0 | 0.00 | 0.00 | 0.00 | 77 | 1009.8 | |
| 20260505031458 | 73 | 0.0 | 0.0 | 0.00 | 0.00 | 0.00 | 76 | 1009.5 | |
| 20260505030415 | 73 | 0.0 | 0.0 | 0.00 | 0.00 | 0.00 | 75 | 1009.5 | |
| 20260505025414 | 73 | 0.0 | 0.0 | 0.00 | 0.00 | 0.00 | 75 | 1009.5 | |
| 20260505024413 | 74 | 0.0 | 0.0 | 0.00 | 0.00 | 0.00 | 74 | 1009.5 | |
| 20260505023412 | 74 | 0.0 | 0.0 | 0.00 | 0.00 | 0.00 | 74 | 1009.5 | |
| 20260505022411 | 75 | 0.0 | 0.0 | 0.00 | 0.00 | 0.00 | 73 | 1009.5 | |
| 20260505021327 | 75 | 0.0 | 0.0 | 0.00 | 0.00 | 0.00 | 72 | 1009.1 | |
| 20260505020244 | 76 | 0.0 | 0.0 | 0.00 | 0.00 | 0.00 | 71 | 1009.1 | |
| 20260505015201 | 76 | 0.0 | 0.0 | 0.00 | 0.00 | 0.00 | 70 | 1009.1 | |
| 20260505014159 | 77 | 0.0 | 0.0 | 0.00 | 0.00 | 0.00 | 69 | 1009.1 | |
| 20260505013158 | 77 | 0.0 | 0.0 | 0.00 | 0.00 | 0.00 | 68 | 1009.1 | |
| 20260505012156 | 78 | 0.0 | 0.0 | 0.00 | 0.00 | 0.00 | 68 | 1009.1 | |
| 20260505011155 | 78 | 0.0 | 0.0 | 0.00 | 0.00 | 0.00 | 66 | 1009.1 | |
| 20260505010155 | 79 | 0.0 | 0.0 | 0.00 | 0.00 | 0.00 | 65 | 1009.1 | |
| 20260505005154 | 79 | 0.0 | 0.0 | 0.00 | 0.00 | 0.00 | 65 | 1009.1 | |
| 20260505004153 | 80 | 0.0 | 0.0 | 0.00 | 0.00 | 0.00 | 64 | 1009.1 | |
| 20260505003152 | 80 | 0.0 | 0.0 | 0.00 | 0.00 | 0.00 | 63 | 1009.1 | |
| 20260505002151 | 80 | 0.0 | 0.0 | 0.00 | 0.00 | 0.00 | 63 | 1008.8 | |
| 20260505001150 | 81 | 0.0 | 0.0 | 0.00 | 0.00 | 0.00 | 61 | 1009.1 | |
| 20260505000107 | 82 | 0.0 | 0.0 | 0.00 | 0.00 | 0.00 | 61 | 1009.1 | |
| 20260504235106 | 82 | 0.0 | 0.0 | 0.00 | 0.00 | 0.00 | 60 | 1009.1 | |
| 20260504234105 | 82 | 0.0 | 0.0 | 0.00 | 0.00 | 0.00 | 60 | 1009.1 | |
| 20260504233104 | 83 | 0.0 | 0.0 | 0.00 | 0.00 | 0.00 | 60 | 1009.5 | |
| 20260504232021 | 82 | 0.0 | 0.0 | 0.00 | 0.00 | 0.00 | 61 | 1009.1 | |
| 20260504231019 | 82 | 0.0 | 0.0 | 0.00 | 0.00 | 0.00 | 60 | 1009.5 | |
| 20260504230018 | 83 | 0.0 | 0.0 | 0.00 | 0.00 | 0.00 | 60 | 1009.5 | |
| 20260504225017 | 82 | 0.0 | 0.0 | 0.00 | 0.00 | 0.00 | 61 | 1009.5 | |
| 20260504224016 | 83 | 0.0 | 0.0 | 0.00 | 0.00 | 0.00 | 60 | 1010.2 | |
| 20260504223015 | 83 | 0.0 | 0.0 | 0.00 | 0.00 | 0.00 | 60 | 1010.2 | |
| 20260504222014 | 83 | 0.0 | 0.0 | 0.00 | 0.00 | 0.00 | 59 | 1010.2 | |
| 20260504221013 | 83 | 0.0 | 0.0 | 0.00 | 0.00 | 0.00 | 60 | 1010.2 | |
| 20260504220011 | 84 | 0.0 | 0.0 | 0.00 | 0.00 | 0.00 | 59 | 1010.2 | |
| 20260504215010 | 83 | 0.0 | 0.0 | 0.00 | 0.00 | 0.00 | 59 | 1010.2 | |
| 20260504214009 | 83 | 0.0 | 0.0 | 0.00 | 0.00 | 0.00 | 59 | 1010.5 | |
| 20260504213007 | 84 | 0.0 | 0.0 | 0.00 | 0.00 | 0.00 | 60 | 1010.5 | |
| 20260504212006 | 84 | 0.0 | 0.0 | 0.00 | 0.00 | 0.00 | 59 | 1010.5 | |
| 20260504211005 | 83 | 0.0 | 0.0 | 0.00 | 0.00 | 0.00 | 62 | 1010.8 | |
| 20260504210004 | 82 | 0.0 | 0.0 | 0.00 | 0.00 | 0.00 | 61 | 1010.8 | |
| 20260504205004 | 81 | 0.0 | 0.0 | 0.00 | 0.00 | 0.00 | 63 | 1011.5 | |
| 20260504204002 | 81 | 0.0 | 0.0 | 0.00 | 0.00 | 0.00 | 64 | 1011.5 | |
| 20260504203001 | 80 | 0.0 | 0.0 | 0.00 | 0.00 | 0.00 | 64 | 1011.9 | |
| 20260504201918 | 80 | 0.0 | 0.0 | 0.00 | 0.00 | 0.00 | 64 | 1011.9 | |
| 20260504200917 | 80 | 0.0 | 0.0 | 0.00 | 0.00 | 0.00 | 64 | 1011.9 | |
| 20260504195834 | 80 | 0.0 | 0.0 | 0.00 | 0.00 | 0.00 | 64 | 1012.2 | |
| 20260504194751 | 80 | 0.0 | 0.0 | 0.00 | 0.00 | 0.00 | 64 | 1012.2 | |
| 20260504193750 | 80 | 0.0 | 0.0 | 0.00 | 0.00 | 0.00 | 65 | 1012.5 | |
| 20260504192749 | 80 | 0.0 | 0.0 | 0.00 | 0.00 | 0.00 | 65 | 1012.5 | |
| 20260504191747 | 80 | 0.0 | 0.0 | 0.00 | 0.00 | 0.00 | 64 | 1012.5 | |
| 20260504190746 | 79 | 0.0 | 0.0 | 0.00 | 0.00 | 0.00 | 65 | 1012.5 | |
| 20260504185703 | 80 | 0.0 | 0.0 | 0.00 | 0.00 | 0.00 | 65 | 1012.9 | |
| 20260504184702 | 80 | 0.0 | 0.0 | 0.00 | 0.00 | 0.00 | 64 | 1012.5 | |
| 20260504183701 | 79 | 0.0 | 0.0 | 0.00 | 0.00 | 0.00 | 65 | 1012.9 | |
| 20260504182700 | 79 | 0.0 | 0.0 | 0.00 | 0.00 | 0.00 | 66 | 1013.2 | |
| 20260504181659 | 79 | 0.0 | 0.0 | 0.00 | 0.00 | 0.00 | 65 | 1013.2 | |
| 20260504180658 | 79 | 0.0 | 0.0 | 0.00 | 0.00 | 0.00 | 65 | 1013.2 | |
| 20260504175615 | 79 | 0.0 | 0.0 | 0.00 | 0.00 | 0.00 | 66 | 1013.2 | |
| 20260504174532 | 79 | 0.0 | 0.0 | 0.00 | 0.00 | 0.00 | 67 | 1013.2 | |
| 20260504173449 | 78 | 0.0 | 0.0 | 0.00 | 0.00 | 0.00 | 69 | 1013.5 | |
| 20260504172448 | 77 | 0.0 | 0.0 | 0.00 | 0.00 | 0.00 | 70 | 1013.9 | |
| 20260504171446 | 77 | 0.0 | 0.0 | 0.00 | 0.00 | 0.00 | 70 | 1013.9 | |
| 20260504170445 | 76 | 0.0 | 0.0 | 0.00 | 0.00 | 0.00 | 71 | 1013.9 | |
| 20260504160233 | 73 | 0.0 | 0.0 | 0.00 | 0.00 | 0.00 | 75 | 1014.2 | |
| 20260504150226 | 71 | 0.0 | 0.0 | 0.00 | 0.00 | 0.00 | 78 | 1014.6 | |
| 20260504141057 | 67 | 0.0 | 0.0 | 0.00 | 0.00 | 0.00 | 81 | 1014.2 | |
| 20260504081402 | 63 | 0.0 | 0.0 | 0.00 | 0.00 | 0.00 | 78 | 1014.9 | |
| 20260504080401 | 64 | 0.0 | 0.0 | 0.00 | 0.00 | 0.00 | 77 | 1015.6 | |
| 20260504070231 | 66 | 0.0 | 0.0 | 0.00 | 0.00 | 0.00 | 74 | 1015.9 | |
| 20260504060142 | 66 | 0.0 | 0.0 | 0.00 | 0.00 | 0.00 | 72 | 1016.6 | |
| 20260504050010 | 67 | 0.0 | 0.0 | 0.00 | 0.00 | 0.00 | 68 | 1016.9 | |
| 20260504045008 | 67 | 0.0 | 0.0 | 0.00 | 0.00 | 0.00 | 68 | 1016.9 | |
| 20260504044007 | 68 | 0.0 | 0.0 | 0.00 | 0.00 | 0.00 | 67 | 1016.9 | |
| 20260504042924 | 68 | 0.0 | 0.0 | 0.00 | 0.00 | 0.00 | 67 | 1016.9 | |
| 20260504041840 | 68 | 0.0 | 0.0 | 0.00 | 0.00 | 0.00 | 66 | 1016.9 | |
| 20260504040757 | 68 | 0.0 | 0.0 | 0.00 | 0.00 | 0.00 | 66 | 1016.9 |